Weather History for EGOM - September, 2013

Change the Weather History Date:

Friday, September 6, 2013

  Actual Average Record
Temperature  
Mean Temperature 48 °F -  
Max Temperature 50 °F - - ()
Min Temperature 46 °F - - ()
Degree Days  
Heating Degree Days 17    
Moisture  
Dew Point 47 °F    
Average Humidity 97    
Maximum Humidity 100    
Minimum Humidity 93    
Precipitation  
Precipitation 0.00 in - - ()
Sea Level Pressure  
Sea Level Pressure 29.82 in    
Wind  
Wind Speed 9 mph ()    
Max Wind Speed 23 mph    
Max Gust Speed 34 mph    
Visibility 5.8 miles    
Events Rain    
T = Trace of Precipitation, MM = Missing Value Source: Averaged Metar Reports

Daily Weather History Graph

Daily Weather History Graph

Search for Another Location

Airport or City:

Trip Planner

Search our weather history database for the weather conditions in past years. The results will help you decide how hot, cold, wet, or windy it might be!

Date:

Astronomy

Sep. 06, 2013 Rise Set
Actual Time 6:25 AM BST 7:49 PM BST
Civil Twilight 5:48 AM BST 8:27 PM BST
Nautical Twilight 5:01 AM BST 9:13 PM BST
Astronomical Twilight 4:09 AM BST 10:04 PM BST
Moon 7:42 AM BST (9/6) 7:42 PM BST (9/6)
Length of Visible Light 14h 39m
Length of Day
13h 24m
New Moon, 1% of the Moon is Illuminated
Sep 6
New Moon
Sep 12
First Quarter
Sep 19
Full
Sep 27
Last Quarter
Oct 5
New

Hourly Weather History & Observations

Time (BST) Temp. Windchill Dew Point Humidity Pressure Visibility Wind Dir Wind Speed Gust Speed Precip Events Conditions
12:50 AM 50.0 °F - 50.0 °F 100% 29.86 in 6.2 mi NNW 3.5 mph - N/A Rain Light Rain Showers
1:50 AM 50.0 °F - 48.2 °F 94% 29.86 in 6.2 mi North 2.3 mph - N/A   Mostly Cloudy
2:50 AM 48.2 °F - 48.2 °F 100% 29.83 in 6.2 mi North 4.6 mph - N/A   Mostly Cloudy
3:50 AM 48.2 °F - 48.2 °F 100% 29.83 in 6.2 mi NNE 8.1 mph - N/A Rain Rain Showers
4:50 AM 48.2 °F - 48.2 °F 100% 29.83 in 6.2 mi NNE 6.9 mph - N/A Rain Rain
5:50 AM 48.2 °F - 48.2 °F 100% 29.83 in 5.6 mi NNE 8.1 mph - N/A Rain Rain
6:50 AM 48.2 °F - 46.4 °F 93% 29.80 in 6.2 mi NNE 15.0 mph - N/A Rain Rain
7:50 AM 48.2 °F - 48.2 °F 100% 29.83 in 6.2 mi NNE 9.2 mph - N/A Rain Light Rain
8:50 AM 48.2 °F - 48.2 °F 100% 29.83 in 4.3 mi NNE 9.2 mph - N/A Rain Light Rain
9:50 AM 48.2 °F - 48.2 °F 100% 29.83 in 6.2 mi North 10.4 mph - N/A Rain Light Rain
10:50 AM 48.2 °F - 46.4 °F 93% 29.86 in 6.2 mi NNE 11.5 mph - N/A Rain Light Rain
11:50 AM 48.2 °F - 48.2 °F 100% 29.83 in 6.2 mi NNE 15.0 mph - N/A Rain Light Rain
12:50 PM 48.2 °F - 46.4 °F 93% 29.83 in 4.3 mi NNE 12.7 mph - N/A Rain Rain
1:50 PM 48.2 °F - 46.4 °F 93% 29.83 in 6.2 mi NNE 10.4 mph - N/A Rain Rain
2:50 PM 46.4 °F 39.8 °F 46.4 °F 100% 29.83 in 6.2 mi NNE 16.1 mph - N/A Rain Light Rain
3:50 PM 46.4 °F 41.5 °F 46.4 °F 100% 29.83 in 6.2 mi NE 10.4 mph - N/A Rain Light Rain
4:50 PM 46.4 °F 41.5 °F 46.4 °F 100% 29.80 in 5.0 mi NNE 10.4 mph - N/A Rain Rain
5:50 PM 46.4 °F 38.5 °F 44.6 °F 93% 29.80 in 6.2 mi NNE 21.9 mph 33.4 mph N/A Rain Rain
6:50 PM 46.4 °F 40.1 °F 46.4 °F 100% 29.80 in 6.2 mi NNE 15.0 mph - N/A Rain Light Rain
7:50 PM 46.4 °F 40.7 °F 44.6 °F 93% 29.80 in 6.2 mi NE 12.7 mph 26.5 mph N/A   Light Drizzle
8:50 PM 46.4 °F 39.2 °F 44.6 °F 93% 29.80 in 5.6 mi NNE 18.4 mph - N/A Rain Rain
9:50 PM 46.4 °F 39.8 °F 44.6 °F 93% 29.77 in 6.2 mi North 16.1 mph - N/A Rain Light Rain
10:50 PM 46.4 °F 38.3 °F 44.6 °F 93% 29.74 in 5.6 mi North 23.0 mph 34.5 mph N/A Rain Light Rain
11:50 PM 46.4 °F 39.0 °F 46.4 °F 100% 29.74 in 3.7 mi NNE 19.6 mph 32.2 mph N/A Rain Rain